Weather History for KICR - July, 2012

Change the Weather History Date:

Friday, July 13, 2012

  Actual Average Record
Temperature  
Mean Temperature 81 °F 76 °F  
Max Temperature 98 °F 88 °F 98 °F (2012)
Min Temperature 63 °F 63 °F 55 °F (2008)
Degree Days  
Heating Degree Days 0 0  
Month to date heating degree days 0 0  
Since 1 June heating degree days 8 54  
Since 1 July heating degree days 0 0  
Cooling Degree Days 16 11  
Month to date cooling degree days 217 124  
Year to date cooling degree days 636 299  
Since 1 June cooling degree days 539 269  
Growing Degree Days 30 (Base 50)    
Moisture  
Dew Point 56 °F    
Average Humidity 54    
Maximum Humidity 90    
Minimum Humidity 18    
Precipitation  
Precipitation 0.00 in 0.09 in 0.59 in (2013)
Month to date precipitation 0.22 1.40  
Year to date precipitation 9.41 13.12  
Sea Level Pressure  
Sea Level Pressure 29.96 in    
Wind  
Wind Speed 7 mph (SE)    
Max Wind Speed 17 mph    
Max Gust Speed 23 mph    
Visibility 10 miles    
Events      
T = Trace of Precipitation, MM = Missing Value Source: NWS Daily Summary

Daily Weather History Graph

Daily Weather History Graph

Search for Another Location

Airport or City:

Trip Planner

Search our weather history database for the weather conditions in past years. The results will help you decide how hot, cold, wet, or windy it might be!

Date:

Astronomy

Jul. 13, 2012 Rise Set
Actual Time 6:11 AM CDT 9:18 PM CDT
Civil Twilight 5:36 AM CDT 9:53 PM CDT
Nautical Twilight 4:52 AM CDT 10:37 PM CDT
Astronomical Twilight 3:58 AM CDT 11:30 PM CDT
Moon 1:51 AM CDT (7/13) 4:48 PM CDT (7/13)
Length of Visible Light 16h 16m
Length of Day
15h 07m
Waning Crescent, 26% of the Moon is Illuminated
Jul 13
Waning Crescent
Jul 18
New
Jul 26
First Quarter
Aug 1
Full
Aug 9
Last Quarter

Hourly Weather History & Observations

Time (CDT) Temp. Heat Index Dew Point Humidity Pressure Visibility Wind Dir Wind Speed Gust Speed Precip Events Conditions
12:53 AM 71.1 °F - 60.1 °F 68% 29.95 in 10.0 mi SSW 15.0 mph - N/A   Clear
1:53 AM 71.1 °F - 61.0 °F 70% 29.94 in 10.0 mi SSW 15.0 mph - N/A   Clear
2:53 AM 68.0 °F - 61.0 °F 78% 29.94 in 10.0 mi WSW 6.9 mph - N/A   Clear
3:53 AM 66.9 °F - 60.1 °F 79% 29.94 in 10.0 mi NW 4.6 mph - N/A   Clear
4:53 AM 66.0 °F - 60.1 °F 81% 29.94 in 10.0 mi NW 8.1 mph - N/A   Clear
5:53 AM 64.9 °F - 60.1 °F 84% 29.96 in 10.0 mi Calm Calm - N/A   Clear
6:53 AM 63.0 °F - 59.0 °F 87% 29.99 in 10.0 mi SE 8.1 mph - N/A   Clear
7:53 AM 70.0 °F - 61.0 °F 73% 30.00 in 10.0 mi South 8.1 mph - N/A   Clear
8:53 AM 75.9 °F - 62.1 °F 62% 29.99 in 10.0 mi South 5.8 mph - N/A   Clear
9:53 AM 80.1 °F 81.2 °F 62.1 °F 54% 30.00 in 10.0 mi SSW 5.8 mph - N/A   Clear
10:53 AM 84.9 °F 85.4 °F 62.1 °F 46% 29.99 in 10.0 mi East 4.6 mph - N/A   Clear
11:53 AM 88.0 °F 87.9 °F 61.0 °F 40% 29.99 in 10.0 mi ESE 4.6 mph - N/A   Clear
12:53 PM 93.0 °F 92.0 °F 57.9 °F 31% 29.98 in 10.0 mi East 10.4 mph - N/A   Clear
1:53 PM 95.0 °F - 50.0 °F 22% 29.97 in 10.0 mi ENE 5.8 mph 16.1 mph N/A   Clear
2:53 PM 96.1 °F - 48.9 °F 20% 29.96 in 10.0 mi NE 9.2 mph - N/A   Clear
3:53 PM 96.1 °F - 48.9 °F 20% 29.95 in 10.0 mi ENE 5.8 mph - N/A   Clear
4:53 PM 97.0 °F - 48.0 °F 19% 29.94 in 10.0 mi East 9.2 mph - N/A   Clear
5:53 PM 97.0 °F - 48.0 °F 19% 29.93 in 10.0 mi NE 9.2 mph - N/A   Clear
6:53 PM 96.1 °F - 46.0 °F 18% 29.93 in 10.0 mi Calm Calm - N/A   Clear
7:53 PM 93.0 °F - 52.0 °F 25% 29.93 in 10.0 mi ENE 3.5 mph - N/A   Clear
8:53 PM 84.0 °F 82.5 °F 53.1 °F 34% 29.93 in 10.0 mi East 6.9 mph - N/A   Clear
9:53 PM 81.0 °F - 52.0 °F 36% 29.94 in 10.0 mi SSE 8.1 mph - N/A   Clear
10:53 PM 78.1 °F - 51.1 °F 39% 29.95 in 10.0 mi SSE 9.2 mph - N/A   Clear
11:53 PM 75.0 °F - 50.0 °F 41% 29.96 in 10.0 mi SSE 9.2 mph - N/A   Clear